This demonstration page uses our WeatherBlox Daily Observations layout. Learn more.

36.17497, -115.13722

Hourly Observations for June 5, 2020

Temp ( °F °C ) Dew Point ( °F °C ) Humidity (%) Winds ( mph kmh ) Pressure ( in mb ) Visibility ( mi km ) Precip ( " mm )
12:53 am 00:53 Clear 90 32.2 35 1.7 14 14 Calm 29.65 1004 10 16.0934 0 0
1:53 am 01:53 Clear 87 30.6 37 2.8 17 17 SSW 3 6 29.63 1004 10 16.0934 0 0
2:53 am 02:53 Clear 86 30 37 2.8 18 18 Calm 29.63 1003 10 16.0934 0 0
3:53 am 03:53 Clear 83 28.3 38 3.3 20 20 NW 3 6 29.64 1004 10 16.0934 0 0
4:53 am 04:53 Clear 82 27.8 39 3.9 22 22 NW 5 7 29.64 1004 10 16.0934 0 0
5:53 am 05:53 Sunny 81 27.2 39 3.9 22 22 NW 3 6 29.64 1004 10 16.0934 0 0
6:53 am 06:53 Sunny 84 28.9 39 3.9 20 20 NNW 3 6 29.65 1004 10 16.0934 0 0
7:53 am 07:53 Sunny 88 31.1 37 2.8 16 16 Calm 29.65 1004 10 16.0934 0 0
8:53 am 08:53 Sunny 93 33.9 34 1.1 12 12 E 7 11 29.65 1004 10 16.0934 0 0
9:53 am 09:53 Sunny 95 35 35 1.7 12 12 E 5 7 29.64 1004 10 16.0934 0 0
10:53 am 10:53 Sunny 99 37.2 37 2.8 12 12 SE 13 20 29.63 1003 10 16.0934 0 0
11:53 am 11:53 Sunny 102 38.9 36 2.2 10 10 SE 14 22 29.61 1003 10 16.0934 0 0
12:53 pm 12:53 Sunny 103 39.4 33 0.6 9 9 S 16 26 29.58 1002 10 16.0934 0 0
1:53 pm 13:53 Sunny 102 38.9 29 -1.7 8 8 SE 20 31 29.56 1001 10 16.0934 0 0
2:53 pm 14:53 Sunny 101 38.3 22 -5.6 6 6 SE 28 44 29.54 1000 10 16.0934 0 0
3:53 pm 15:53 Sunny 99 37.2 27 -2.8 8 8 SSE 28 44 29.54 1000 10 16.0934 0 0
4:53 pm 16:53 Sunny 99 37.2 23 -5 6 6 SE 26 43 29.52 1000 10 16.0934 0 0
5:53 pm 17:53 Sunny 99 37.2 25 -3.9 7 7 S 14 22 29.51 999 10 16.0934 0 0
6:53 pm 18:53 Sunny 97 36.1 23 -5 7 7 SE 21 33 29.49 999 10 16.0934 0 0
7:53 pm 19:53 Sunny 94 34.4 25 -3.9 8 8 SSE 20 31 29.49 999 10 16.0934 0 0
8:53 pm 20:53 Clear 92 33.3 29 -1.7 10 10 SSE 10 17 29.49 999 10 16.0934 0 0
9:53 pm 21:53 Clear 88 31.1 36 2.2 16 16 SSE 5 7 29.5 999 10 16.0934 0 0
10:53 pm 22:53 Clear 86 30 40 4.4 20 20 S 10 17 29.52 1000 10 16.0934 0 0
11:53 pm 23:53 Clear 84 28.9 38 3.3 19 19 S 9 15 29.51 999 10 16.0934 0 0

Powered by AerisWeather